Weather History for Defiance, OH

Change the Weather History Date:

Thursday, August 29, 2013

  Actual Average Record
Temperature  
Mean Temperature 76 °F -  
Max Temperature 88 °F 81 °F 97 °F (1948)
Min Temperature 66 °F 58 °F 31 °F (1948)
Cooling Degree Days 12    
Growing Degree Days 26 (Base 50)    
Moisture  
Dew Point 66 °F    
Average Humidity 79    
Maximum Humidity 94    
Minimum Humidity 49    
Precipitation  
Precipitation 0.00 in - - ()
Sea Level Pressure  
Sea Level Pressure 30.04 in    
Wind  
Wind Speed 2 mph (NE)    
Max Wind Speed 8 mph    
Max Gust Speed -    
Visibility 7 miles    
Events      
Averages and records for this station are not official NWS values.
T = Trace of Precipitation, MM = Missing Value Source: NWS Daily Summary

Daily Weather History Graph

Daily Weather History Graph

Search for Another Location

Airport:

Trip Planner

Search our weather history database for the weather conditions in past years. The results will help you decide how hot, cold, wet, or windy it might be!

Date:

Astronomy

Aug. 29, 2013 Rise Set
Actual Time 7:01 AM EDT 8:15 PM EDT
Civil Twilight 6:32 AM EDT 8:43 PM EDT
Nautical Twilight 5:58 AM EDT 9:17 PM EDT
Astronomical Twilight 5:22 AM EDT 9:53 PM EDT
Moon 12:50 AM EDT (8/29) 3:45 PM EDT (8/29)
Length of Visible Light 14h 10m
Length of Day
13h 13m
Last Quarter, 38% of the Moon is Illuminated
Aug 29
Last Quarter
Sep 5
New
Sep 12
First Quarter
Sep 19
Full
Sep 26
Last Quarter

Hourly Weather History & Observations

Time (EDT) Temp. Heat Index Dew Point Humidity Pressure Visibility Wind Dir Wind Speed Gust Speed Precip Events Conditions
12:53 AM 72.0 °F - 68.0 °F 87% 30.00 in 8.0 mi North 3.5 mph - N/A   Clear
1:53 AM 72.0 °F - 68.0 °F 87% 30.01 in 8.0 mi Calm Calm - N/A   Clear
2:53 AM 69.1 °F - 66.9 °F 93% 30.01 in 6.0 mi NNE 3.5 mph - N/A   Clear
3:53 AM 69.1 °F - 66.9 °F 93% 30.01 in 5.0 mi Calm Calm - N/A   Clear
4:46 AM 68.0 °F - 66.2 °F 94% 30.03 in 2.5 mi Calm Calm - N/A   Clear
4:53 AM 68.0 °F - 66.0 °F 93% 30.01 in 5.0 mi Calm Calm - N/A   Clear
5:27 AM 66.2 °F - 64.4 °F 94% 30.03 in 2.0 mi North 3.5 mph - N/A   Clear
5:34 AM 66.2 °F - 64.4 °F 94% 30.03 in 1.5 mi Calm Calm - N/A   Clear
5:37 AM 66.2 °F - 64.4 °F 94% 30.03 in 2.5 mi Calm Calm - N/A   Clear
5:44 AM 66.2 °F - 64.4 °F 94% 30.03 in 4.0 mi Calm Calm - N/A   Clear
5:53 AM 66.9 °F - 64.9 °F 93% 30.02 in 4.0 mi Calm Calm - N/A   Clear
6:53 AM 66.9 °F - 64.0 °F 90% 30.03 in 4.0 mi NW 3.5 mph - N/A   Clear
7:09 AM 66.2 °F - 64.4 °F 94% 30.05 in 2.5 mi Calm Calm - N/A   Clear
7:53 AM 66.9 °F - 64.9 °F 93% 30.06 in 3.0 mi NNW 3.5 mph - N/A   Clear
8:53 AM 70.0 °F - 66.0 °F 87% 30.07 in 6.0 mi NNE 5.8 mph - N/A   Clear
9:53 AM 75.0 °F - 68.0 °F 79% 30.07 in 9.0 mi NE 5.8 mph - N/A   Clear
10:53 AM 78.1 °F - 69.1 °F 74% 30.07 in 8.0 mi East 4.6 mph - N/A   Clear
11:53 AM 81.0 °F 84.4 °F 70.0 °F 69% 30.08 in 10.0 mi ESE 4.6 mph - N/A   Mostly Cloudy
12:20 PM 80.6 °F 83.9 °F 69.8 °F 70% 30.09 in 8.0 mi ENE 8.1 mph - N/A   Scattered Clouds
12:53 PM 80.1 °F 82.9 °F 69.1 °F 69% 30.08 in 6.0 mi ESE 8.1 mph - N/A   Haze
1:53 PM 82.9 °F 86.5 °F 69.1 °F 63% 30.06 in 9.0 mi Variable 5.8 mph - N/A   Clear
2:53 PM 84.9 °F 87.6 °F 66.9 °F 55% 30.04 in 10.0 mi ESE 5.8 mph - N/A   Clear
3:53 PM 87.1 °F 89.9 °F 66.9 °F 51% 30.04 in 10.0 mi East 5.8 mph - N/A   Scattered Clouds
4:53 PM 86.0 °F 88.2 °F 66.0 °F 51% 30.03 in 10.0 mi Calm Calm - N/A   Scattered Clouds
5:53 PM 86.0 °F 87.6 °F 64.9 °F 49% 30.02 in 10.0 mi Variable 5.8 mph - N/A   Partly Cloudy
6:53 PM 84.9 °F 86.6 °F 64.9 °F 51% 30.01 in 10.0 mi East 3.5 mph - N/A   Clear
7:53 PM 81.0 °F 83.0 °F 66.0 °F 60% 30.02 in 10.0 mi East 3.5 mph - N/A   Clear
8:53 PM 75.9 °F - 66.9 °F 74% 30.03 in 10.0 mi Calm Calm - N/A   Clear
9:53 PM 73.0 °F - 66.9 °F 81% 30.04 in 10.0 mi Calm Calm - N/A   Clear
10:53 PM 71.1 °F - 64.9 °F 81% 30.02 in 10.0 mi Calm Calm - N/A   Clear
11:53 PM 70.0 °F - 64.0 °F 81% 30.01 in 10.0 mi Calm Calm - N/A   Clear